[[{"header":{"parameterUnit":"m.s-1","parameterCategory":1,"la1":30.2991,"la2":30.254,"lo1":-89.0895,"lo2":-89.0444,"dy":0.0017,"dx":0.0017,"nx":28,"ny":28,"refTime":"2025-03-27T03:00:00:Z","depth":0,"parameterNumber":2,"parameterNumberName":"U-component_of_WINDS"},"data":[0,0,0,0,0,0,0,0,0,0,0,0,0,0,0,0,0,0,0,0,0,0,0,0,0,0,0,0,0,0,0,0,0,0,0,0,0,0,0,0,0,0,0,0,0,0,0,0,0,0,0,0,0,0,0,0,0,0,-3.7367,-3.7368,0,-3.744,-3.7441,-3.7441,-3.739,-3.7388,-3.7386,-3.7384,-3.7458,-3.7462,-3.7466,0,0,0,0,0,0,0,0,0,0,0,0,0,-3.7187,-3.719,-3.7367,-3.7368,-3.7369,-3.744,-3.7441,-3.7442,-3.7391,-3.7388,-3.7385,-3.7383,-3.7457,-3.7462,-3.7467,0,0,0,0,0,0,0,0,0,0,0,0,0,-3.7263,-3.7191,-3.7367,-3.7352,-3.7351,-3.7439,-3.7441,-3.7442,-3.7391,-3.7388,-3.7384,-3.7381,-3.7455,-3.7461,-3.7468,-3.7574,0,0,-3.7486,-3.7489,0,0,0,0,0,0,0,0,-3.7259,-3.7269,-3.7353,-3.7353,-3.7353,-3.7402,-3.7404,-3.7486,-3.7392,-3.7376,-3.7384,-3.738,-3.7443,-3.745,-3.7471,-3.7578,-3.7581,-3.7487,-3.7491,-3.7493,-3.7495,0,0,0,0,0,0,0,-3.7253,-3.7266,-3.7396,-3.7355,-3.7354,-3.7343,-3.735,-3.742,-3.7428,-3.7377,-3.7374,-3.7383,-3.7442,-3.7465,-3.7472,-3.7582,-3.7487,-3.7492,-3.7496,-3.7499,-3.7782,-3.7785,0,0,0,0,0,0,-3.7249,-3.7262,-3.7393,-3.7398,-3.7296,-3.7349,-3.7356,-3.739,-3.7427,-3.7429,-3.7386,-3.738,-3.7456,-3.7465,-3.7475,-3.7602,-3.7493,-3.7499,-3.7503,-3.7778,-3.7783,-3.7787,0,0,0,0,0,0,-3.7246,-3.7261,-3.7391,-3.7329,-3.7345,-3.7355,-3.7393,-3.7393,-3.7416,-3.7433,-3.7435,-3.7408,-3.7454,-3.7466,-3.755,-3.7604,-3.7502,-3.7508,-3.7774,-3.7779,-3.7785,-3.7858,0,0,0,0,0,0,-3.7241,-3.726,-3.73,-3.733,-3.7348,-3.7464,-3.7397,-3.7397,-3.7427,-3.742,-3.7454,-3.7457,-3.7452,-3.7541,-3.7556,-3.7611,-3.7512,-3.7769,-3.7776,-3.7783,-3.7851,-3.7866,-3.7878,0,0,0,0,0,-3.7234,-3.7318,-3.7302,-3.7319,-3.7398,-3.7467,-3.7478,-3.747,-3.7431,-3.7472,-3.7484,-3.7456,-3.7596,-3.755,-3.7567,-3.7624,-3.7765,-3.7774,-3.7782,-3.7845,-3.7863,-3.7878,0,0,0,0,0,0,-3.7293,-3.7321,-3.7305,-3.74,-3.7432,-3.7459,-3.7509,-3.749,-3.7533,-3.7525,-3.7515,-3.7523,-3.7611,-3.7626,-3.7574,-3.773,-3.7675,-3.7687,-3.7716,-3.7734,-3.7747,-3.7741,-3.7517,0,0,0,0,0,-3.7317,-3.7371,-3.7393,-3.7475,-3.7492,-3.7499,-3.7528,-3.752,-3.7553,-3.7566,-3.7583,-3.7616,-3.7668,-3.7702,-3.775,-3.7854,-3.7861,-3.7902,-3.7915,-3.7926,-3.7937,-3.7994,-3.8012,-3.7815,-3.7815,-3.7815,0,0,-3.7368,-3.739,-3.7424,-3.7488,-3.7511,-3.7568,-3.751,-3.7571,-3.7613,-3.7575,-3.7655,-3.767,-3.7706,-3.7801,-3.7843,-3.7816,-3.7993,-3.7937,-3.7946,-3.795,-3.8004,-3.8023,-3.8039,-3.7821,-3.782,-3.7819,0,0,-3.7488,-3.751,-3.7581,-3.7607,-3.7643,-3.7647,-3.7665,-3.7696,-3.7704,-3.7784,-3.7757,-3.7808,-3.7897,-3.7924,-3.7949,-3.8084,-3.806,-3.81,-3.8171,-3.8226,-3.8242,-3.8255,-3.8303,-3.832,-3.811,-3.8111,-3.8111,0,-3.7545,-3.7628,-3.762,-3.7685,-3.7714,-3.7683,-3.7756,-3.7781,-3.7832,-3.7853,-3.7822,-3.7935,-3.7957,-3.8058,-3.8091,-3.8112,-3.8132,-3.8095,-3.824,-3.8254,-3.8266,-3.8312,-3.833,-3.8115,-3.8115,-3.8114,-3.8114,0,-3.7698,-3.7756,-3.781,-3.786,-3.7896,-3.7964,-3.7967,-3.8004,-3.7994,-3.8002,-3.8086,-3.8112,-3.8166,-3.819,-3.818,-3.829,-3.8272,-3.8241,-3.8185,-3.829,-3.8332,-3.835,-3.8122,-3.812,-3.8119,-3.8118,0,0,-3.7854,-3.7901,-3.792,-3.7943,-3.7983,-3.8029,-3.8097,-3.8149,-3.8182,-3.8219,-3.8276,-3.8353,-3.8326,-3.8355,-3.8349,-3.8398,-3.8503,-3.8361,-3.8361,-3.8386,-3.8626,-3.8648,-3.8668,-3.8488,-3.8491,-3.8494,-3.8623,0,-3.7976,-3.8093,-3.8089,-3.8199,-3.8253,-3.8226,-3.8286,-3.8317,-3.8327,-3.8376,-3.8387,-3.8442,-3.8401,-3.8419,-3.8466,-3.848,-3.8551,-3.8471,-3.8541,-3.8543,-3.8531,-3.869,-3.8713,-3.8833,-3.8639,-3.8642,-3.8644,0,-3.8132,-3.8175,-3.829,-3.8324,-3.8346,-3.84,-3.8449,-3.8495,-3.8531,-3.8535,-3.857,-3.8556,-3.8626,-3.857,-3.8667,-3.8613,-3.8642,-3.8653,-3.8658,-3.8663,-3.8599,-3.8699,-3.8871,-3.8889,-3.867,-3.8668,-3.8666,0,-3.8234,-3.8321,-3.8401,-3.8422,-3.8463,-3.8501,-3.852,-3.8553,-3.8586,-3.8629,-3.865,-3.8702,-3.873,-3.877,-3.8772,-3.8731,-3.887,-3.8814,-3.8875,-3.8875,-3.8904,-3.8902,-3.9083,-3.8925,-3.8925,-3.8925,-3.8924,0,-3.8369,-3.8441,-3.8448,-3.8497,-3.8577,-3.8573,-3.8652,-3.8668,-3.8698,-3.875,-3.8731,-3.8781,-3.8781,-3.8832,-3.8834,-3.8914,-3.8927,-3.8933,-3.8932,-3.8934,-3.8933,-3.8951,-3.8942,-3.8929,-3.8928,-3.8927,-3.8927,0,-3.8495,-3.8503,-3.8588,-3.8621,-3.8631,-3.8689,-3.8717,-3.8765,-3.8774,-3.8841,-3.8857,-3.8872,-3.8931,-3.8938,-3.9007,-3.9008,-3.9105,-3.9096,-3.9093,-3.9091,-3.9152,-3.9146,-3.935,-3.9376,-3.9203,-3.9204,-3.9206,0,-3.858,-3.8634,-3.8674,-3.8707,-3.8729,-3.8784,-3.8817,-3.8817,-3.8853,-3.8899,-3.8942,-3.9,-3.9045,-3.9143,-3.916,-3.9214,-3.9205,-3.9273,-3.9213,-3.9213,-3.9205,-3.9202,-3.9207,-3.9284,-3.9286,-3.9288,-3.9289,0,-3.873,-3.8732,-3.878,-3.8832,-3.8873,-3.8913,-3.8951,-3.898,-3.8984,-3.9026,-3.9087,-3.9123,-3.9195,-3.9253,-3.9306,-3.9326,-3.9309,-3.9308,-3.9325,-3.9326,-3.9322,-3.9325,-3.9123,-3.9303,-3.9301,-3.93,-3.93,-3.9299,-3.8837,-3.8885,-3.892,-3.8976,-3.9005,-3.9041,-3.9088,-3.9104,-3.9155,-3.9213,-3.921,-3.9278,-3.9314,-3.9384,-3.9409,-3.9462,-3.944,-3.9464,-3.947,-3.9476,-3.9482,-3.9315,-3.9472,-3.9472,-3.9471,-3.9471,-3.9471,0,-3.8986,-3.9008,-3.9059,-3.9113,-3.9158,-3.9138,-3.918,-3.9218,-3.9278,-3.9314,-3.936,-3.9431,-3.9488,-3.9512,-3.9568,-3.9606,-3.96,-3.9621,-3.9617,-3.9622,-3.9499,-3.9479,-3.9625,-3.9625,-3.9625,-3.9625,-3.9625,-3.9625,-3.9068,-3.9147,-3.9154,-3.9248,-3.927,-3.9336,-3.9362,-3.9396,-3.9424,-3.9504,-3.9552,-3.9567,-3.9598,-3.9657,-3.9709,-3.9714,-3.9735,-3.976,-3.9762,-3.9646,-3.9631,-3.9616,-3.9596,-3.9765,-3.9765,-3.988,-3.9881,-3.9882]},{"header":{"parameterUnit":"m.s-1","parameterCategory":1,"la1":30.2991,"la2":30.254,"lo1":-89.0895,"lo2":-89.0444,"dy":0.0017,"dx":0.0017,"nx":28,"ny":28,"refTime":"2025-03-27T03:00:00:Z","depth":0,"parameterNumber":3,"parameterNumberName":"V-component_of_WINDS"},"data":[0,0,0,0,0,0,0,0,0,0,0,0,0,0,0,0,0,0,0,0,0,0,0,0,0,0,0,0,0,0,0,0,0,0,0,0,0,0,0,0,0,0,0,0,0,0,0,0,0,0,0,0,0,0,0,0,0,0,1.3975,1.3976,0,1.4013,1.4014,1.4014,1.4045,1.4046,1.4046,1.4046,1.4082,1.4083,1.4084,0,0,0,0,0,0,0,0,0,0,0,0,0,1.3928,1.3929,1.3975,1.3976,1.3976,1.4013,1.4014,1.4014,1.4045,1.4046,1.4046,1.4046,1.4082,1.4083,1.4084,0,0,0,0,0,0,0,0,0,0,0,0,0,1.3955,1.3929,1.3975,1.3996,1.3998,1.4013,1.4014,1.4014,1.4045,1.4046,1.4046,1.4046,1.4082,1.4083,1.4084,1.408,0,0,1.4087,1.4087,0,0,0,0,0,0,0,0,1.3954,1.3957,1.3992,1.3995,1.3997,1.4025,1.401,1.4036,1.4045,1.4027,1.4046,1.4047,1.4063,1.4065,1.4071,1.4082,1.4083,1.4087,1.4088,1.4088,1.4088,0,0,0,0,0,0,0,1.3952,1.3956,1.399,1.3993,1.3996,1.4003,1.4008,1.4016,1.4042,1.4029,1.4031,1.4035,1.4064,1.407,1.4072,1.4084,1.4087,1.4088,1.4088,1.4089,1.4096,1.4095,0,0,0,0,0,0,1.3947,1.3954,1.3989,1.3991,1.3976,1.4004,1.4009,1.4016,1.4042,1.4046,1.4035,1.4037,1.4068,1.4071,1.4074,1.4073,1.4088,1.4089,1.4089,1.4096,1.4096,1.4095,0,0,0,0,0,0,1.3946,1.395,1.3987,1.3973,1.3979,1.4004,1.4011,1.4016,1.4022,1.4046,1.4051,1.4037,1.4069,1.4072,1.4079,1.4074,1.4089,1.409,1.4097,1.4096,1.4095,1.4069,0,0,0,0,0,0,1.3944,1.3949,1.3948,1.3973,1.3979,1.3992,1.4011,1.4016,1.4024,1.4027,1.4049,1.4053,1.407,1.4077,1.408,1.4076,1.4091,1.4097,1.4096,1.4096,1.4071,1.4068,1.4066,0,0,0,0,0,1.3942,1.3938,1.3948,1.3952,1.3978,1.3992,1.3995,1.4015,1.4024,1.4023,1.4039,1.4052,1.4075,1.4078,1.4081,1.4077,1.4097,1.4097,1.4096,1.4072,1.4069,1.4066,0,0,0,0,0,0,1.391,1.3942,1.3953,1.3956,1.3971,1.3997,1.3996,1.401,1.4022,1.4024,1.4047,1.4052,1.4057,1.4068,1.4071,1.4076,1.4088,1.4088,1.4069,1.4066,1.4063,1.406,1.4092,0,0,0,0,0,1.3904,1.3913,1.3939,1.394,1.3947,1.3971,1.3977,1.3991,1.4007,1.4013,1.403,1.4044,1.4055,1.4061,1.4071,1.4073,1.4079,1.4072,1.4069,1.4067,1.4066,1.407,1.4067,1.4092,1.4092,1.4092,0,0,1.389,1.3908,1.3912,1.3934,1.3947,1.3956,1.3975,1.3983,1.399,1.4014,1.4022,1.4035,1.4053,1.4057,1.406,1.4066,1.4061,1.4066,1.4064,1.4064,1.4068,1.4066,1.4064,1.4091,1.4092,1.4092,0,0,1.3869,1.3884,1.3887,1.3901,1.3921,1.3937,1.3938,1.3962,1.3972,1.3981,1.4,1.4008,1.4025,1.4038,1.4046,1.4033,1.4047,1.4036,1.4022,1.4025,1.4023,1.4021,1.4018,1.4016,1.4035,1.4035,1.4035,0,1.3849,1.3864,1.3886,1.3894,1.3903,1.3928,1.3932,1.3943,1.3966,1.3972,1.3979,1.4003,1.4016,1.4025,1.4022,1.4028,1.403,1.4033,1.4022,1.402,1.4019,1.4016,1.4014,1.4034,1.4034,1.4034,1.4034,0,1.3839,1.3849,1.3848,1.3872,1.3881,1.3886,1.391,1.3917,1.3931,1.3946,1.3956,1.3973,1.3989,1.3992,1.4005,1.4003,1.4007,1.4017,1.403,1.4015,1.4012,1.4011,1.4032,1.4032,1.4033,1.4033,0,0,1.3797,1.3835,1.3835,1.3847,1.3872,1.388,1.3887,1.3904,1.391,1.3925,1.3932,1.3947,1.3958,1.3968,1.3982,1.3985,1.3975,1.3996,1.3996,1.3992,1.3976,1.3968,1.3966,1.3985,1.3984,1.3984,1.3975,0,1.3782,1.3797,1.3818,1.3826,1.3836,1.386,1.3867,1.3883,1.3898,1.3909,1.3925,1.3936,1.3949,1.3955,1.3959,1.3976,1.3972,1.3977,1.3991,1.3991,1.3986,1.3965,1.3956,1.3946,1.3974,1.3974,1.3973,0,1.3765,1.3781,1.379,1.3817,1.3822,1.3827,1.3846,1.3855,1.3875,1.3886,1.3898,1.3914,1.3923,1.3935,1.3948,1.395,1.3958,1.3967,1.3967,1.3969,1.3982,1.3967,1.3943,1.3942,1.3972,1.3972,1.3972,0,1.3735,1.3759,1.3768,1.3777,1.3808,1.3812,1.3825,1.3845,1.3855,1.387,1.3877,1.3893,1.3902,1.3914,1.3935,1.3941,1.3946,1.3958,1.3955,1.3955,1.3955,1.3955,1.3932,1.3959,1.3959,1.3959,1.3959,0,1.3715,1.372,1.3755,1.3761,1.3767,1.3793,1.3798,1.3813,1.3832,1.3841,1.3862,1.387,1.3897,1.3908,1.3924,1.3933,1.3937,1.3946,1.395,1.3944,1.3943,1.3949,1.3951,1.3959,1.3959,1.3959,1.3959,0,1.3683,1.3707,1.3719,1.3748,1.3756,1.3759,1.3785,1.3791,1.3808,1.382,1.3824,1.385,1.3865,1.3887,1.3907,1.3918,1.3925,1.3932,1.3919,1.3921,1.3917,1.3918,1.3899,1.3898,1.3924,1.3924,1.3923,0,1.3669,1.3674,1.3705,1.3713,1.3726,1.3739,1.3749,1.3775,1.3785,1.3809,1.3812,1.3829,1.3843,1.3865,1.3886,1.3902,1.391,1.3902,1.3913,1.3907,1.3911,1.3911,1.3912,1.39,1.3899,1.3899,1.3899,0,1.3642,1.3654,1.3669,1.3688,1.3701,1.3717,1.3734,1.3739,1.3768,1.3779,1.3795,1.3806,1.3828,1.3845,1.3864,1.3877,1.3893,1.3896,1.3896,1.389,1.3883,1.3888,1.3913,1.3896,1.3896,1.3896,1.3897,1.3897,1.3619,1.3625,1.3649,1.3665,1.3681,1.3697,1.3705,1.3725,1.3739,1.376,1.3774,1.3789,1.381,1.3839,1.3851,1.3864,1.387,1.387,1.387,1.387,1.3869,1.3881,1.3867,1.3867,1.3867,1.3867,1.3868,0,1.3594,1.3611,1.3626,1.365,1.3663,1.3679,1.3699,1.3709,1.3722,1.3741,1.3756,1.3775,1.3792,1.3815,1.3833,1.3839,1.3846,1.3843,1.3843,1.3846,1.3861,1.3859,1.3836,1.3836,1.3836,1.3836,1.3836,1.3836,1.3583,1.3595,1.361,1.363,1.3647,1.3663,1.3674,1.3689,1.3704,1.3725,1.374,1.3755,1.3776,1.3797,1.3813,1.3819,1.3825,1.3819,1.3828,1.3841,1.3844,1.3847,1.3846,1.382,1.382,1.3811,1.3811,1.3811]}]]